This is the latest recevied weather packets stored in our database for station/object K4DFD-13. If no packets are shown the sender has not sent any weather packets the latest 10 day(s).
| Time | Temp. | Humidity | Pressure | Rain* | Wind** | Luminosity | Snow |
|---|---|---|---|---|---|---|---|
| 1777760065 | 11.11° C | 48% | 1013.8 hPa | 0 mm | - | - | - |
| 1777759765 | 11.11° C | 49% | 1013.9 hPa | 0 mm | - | - | - |
| 1777759465 | 11.67° C | 48% | 1013.6 hPa | 0 mm | - | - | - |
| 1777759165 | 11.11° C | 49% | 1013.2 hPa | 0 mm | - | - | - |
| 1777758864 | 11.11° C | 49% | 1013.8 hPa | 0 mm | - | - | - |
| 1777758554 | 11.11° C | 47% | 1013.6 hPa | 0 mm | - | - | - |
| 1777758253 | 11.67° C | 47% | 1013.8 hPa | 0 mm | - | - | - |
| 1777757963 | 12.22° C | 48% | 1013.7 hPa | 0 mm | - | - | - |
| 1777757662 | 12.78° C | 46% | 1013.5 hPa | 0 mm | - | - | - |
| 1777757362 | 12.78° C | 46% | 1013.2 hPa | 0 mm | - | - | - |
| 1777757052 | 12.78° C | 45% | 1012.9 hPa | 0 mm | - | - | - |
| 1777756761 | 12.78° C | 44% | 1013 hPa | 0 mm | - | - | - |
| 1777756461 | 12.78° C | 45% | 1012.8 hPa | 0 mm | - | - | - |
| 1777756161 | 12.22° C | 45% | 1012.7 hPa | 0 mm | - | - | - |
| 1777755860 | 12.78° C | 45% | 1013.2 hPa | 0 mm | - | - | - |
| 1777755560 | 13.33° C | 43% | 1012.9 hPa | 0 mm | - | - | - |
| 1777755260 | 12.78° C | 46% | 1012.5 hPa | 0 mm | - | - | - |
| 1777754959 | 12.22° C | 44% | 1012.5 hPa | 0 mm | - | - | - |
| 1777754659 | 12.22° C | 44% | 1013 hPa | 0 mm | - | - | - |
| 1777754348 | 12.22° C | 44% | 1013 hPa | 0 mm | - | - | - |
| 1777754058 | 12.22° C | 44% | 1013 hPa | 0 mm | - | - | - |
| 1777753758 | 12.78° C | 45% | 1013 hPa | 0 mm | - | - | - |
| 1777753457 | 12.78° C | 45% | 1013.1 hPa | 0 mm | - | - | - |
| 1777753157 | 12.78° C | 46% | 1012.7 hPa | 0 mm | - | - | - |
| 1777752857 | 12.78° C | 43% | 1012.7 hPa | 0 mm | - | - | - |
* Rain latest hour (hover to see other rain measurements)
** Current wind speed in m/s (hover to see current wind gust speed)